M0PSX-13 Weather Reports


time (UTC)temp
C
wind
direction
speed
KPH
gust
KPH
rain 1hr
cm
rain 24hr
cm
rain mn
cm
humidity
%
barometer
mb
20260507074004 10 338 1.6 3.2 0.00 0.00 0.00 83 1015.7
20260507072004 10 340 1.6 3.2 0.00 0.00 0.00 84 1015.8
20260507070009 9 347 1.6 3.2 0.00 0.00 0.00 85 1015.5
20260507065004 9 338 3.2 3.2 0.00 0.00 0.00 85 1015.5
20260507063005 9 342 0.0 3.2 0.00 0.00 0.00 86 1015.6
20260507062005 8 340 0.0 3.2 0.00 0.00 0.00 87 1015.5
20260507061004 8 341 0.0 3.2 0.00 0.00 0.00 87 1015.3
20260507060004 8 345 0.0 3.2 0.00 0.00 0.00 88 1015.5
20260507054004 8 1 0.0 3.2 0.00 0.00 0.00 88 1015.3
20260507053007 8 354 0.0 3.2 0.00 0.00 0.00 88 1015.1
20260507052004 8 1 0.0 3.2 0.00 0.00 0.00 88 1015.3
20260507050005 8 0 0.0 0.0 0.00 0.00 0.00 88 1015.0
20260507045005 8 1 0.0 3.2 0.00 0.00 0.00 88 1015.1
20260507044004 8 341 0.0 3.2 0.00 0.00 0.00 88 1014.9
20260507043005 8 354 0.0 3.2 0.00 0.00 0.00 88 1014.9
20260507042004 8 346 0.0 3.2 0.00 0.00 0.00 87 1014.8
20260507040005 8 337 0.0 3.2 0.00 0.00 0.00 87 1014.7
20260507035004 8 350 0.0 3.2 0.00 0.00 0.00 87 1014.9
20260507034004 8 1 0.0 3.2 0.00 0.00 0.00 87 1014.7
20260507033004 8 345 0.0 3.2 0.00 0.00 0.00 87 1014.7
20260507032004 8 343 1.6 3.2 0.00 0.00 0.00 86 1014.7
20260507031004 8 347 3.2 3.2 0.00 0.00 0.00 86 1014.9
20260507030004 8 1 0.0 3.2 0.00 0.00 0.00 86 1014.6
20260507025004 8 337 0.0 3.2 0.00 0.00 0.00 85 1014.6
20260507023005 8 347 1.6 3.2 0.00 0.00 0.00 85 1014.6
20260507022005 8 346 1.6 3.2 0.00 0.00 0.00 85 1014.6
20260507021005 8 342 0.0 3.2 0.00 0.00 0.00 85 1014.2
20260507020005 8 338 0.0 3.2 0.00 0.00 0.00 85 1014.5
20260507015004 8 352 0.0 3.2 0.00 0.00 0.00 85 1014.4
20260507014005 8 341 0.0 3.2 0.00 0.00 0.00 85 1014.3
20260507013005 8 345 0.0 3.2 0.00 0.00 0.00 85 1014.3
20260507011004 8 342 0.0 3.2 0.00 0.00 0.00 85 1014.3
20260507010004 8 350 0.0 3.2 0.00 0.00 0.00 85 1014.3
20260507005005 8 339 0.0 3.2 0.00 0.00 0.00 85 1014.4
20260507004012 8 345 0.0 3.2 0.00 0.00 0.00 85 1014.2
20260507002004 8 342 0.0 3.2 0.00 0.00 0.00 85 1014.4
20260507001004 8 344 0.0 3.2 0.00 0.00 0.00 85 1014.4
20260506235004 9 0 0.0 0.0 0.00 0.00 0.00 84 1014.5
20260506234004 9 0 0.0 0.0 0.00 0.00 0.00 84 1014.3
20260506233005 9 0 0.0 0.0 0.00 0.00 0.00 84 1014.2
20260506232005 9 337 0.0 3.2 0.00 0.00 0.00 84 1014.5
20260506231004 9 0 0.0 0.0 0.00 0.00 0.00 84 1014.4
20260506225005 9 1 0.0 3.2 0.00 0.00 0.00 85 1014.3
20260506224004 9 350 0.0 3.2 0.00 0.00 0.00 85 1014.4
20260506223004 9 0 0.0 0.0 0.00 0.00 0.00 85 1014.0
20260506222004 9 337 0.0 3.2 0.00 0.00 0.00 85 1014.1
20260506221005 9 340 0.0 3.2 0.00 0.00 0.00 86 1013.9
20260506220004 9 337 1.6 3.2 0.00 0.00 0.00 86 1013.9
20260506215006 9 339 1.6 3.2 0.00 0.00 0.00 86 1014.1
20260506213004 10 338 0.0 3.2 0.00 0.00 0.00 86 1013.9
20260506211005 10 345 0.0 3.2 0.00 0.00 0.00 86 1013.7
20260506210005 10 1 0.0 3.2 0.00 0.00 0.00 85 1013.8
20260506205004 10 346 0.0 3.2 0.00 0.00 0.00 85 1013.8
20260506204004 10 338 0.0 3.2 0.00 0.00 0.00 85 1013.8
20260506203004 10 342 1.6 3.2 0.00 0.00 0.00 85 1013.5
20260506202004 10 337 1.6 3.2 0.00 0.00 0.00 85 1013.5
20260506201004 10 339 3.2 3.2 0.00 0.00 0.00 84 1013.4
20260506200005 10 339 0.0 3.2 0.00 0.00 0.00 83 1013.4
20260506194005 10 338 3.2 6.4 0.00 0.00 0.00 82 1013.4
20260506193005 10 337 1.6 6.4 0.00 0.00 0.00 80 1013.2
20260506192004 10 343 1.6 3.2 0.00 0.00 0.00 79 1012.9
20260506191004 10 0 0.0 0.0 0.00 0.00 0.00 78 1012.9
20260506190006 10 0 0.0 0.0 0.00 0.00 0.00 78 1012.8
20260506185004 10 0 0.0 0.0 0.00 0.00 0.00 78 1012.8
20260506183005 10 0 0.0 0.0 0.00 0.00 0.00 78 1012.8
20260506182005 10 349 0.0 3.2 0.00 0.00 0.00 78 1012.6
20260506181004 10 0 0.0 0.0 0.00 0.00 0.00 78 1012.6
20260506180005 10 345 0.0 3.2 0.00 0.00 0.00 78 1012.3
20260506175005 10 337 0.0 3.2 0.00 0.00 0.00 79 1012.3
20260506173005 11 337 0.0 3.2 0.00 0.00 0.00 79 1012.2
20260506172004 10 338 0.0 3.2 0.00 0.00 0.00 79 1012.1
20260506170004 11 339 3.2 3.2 0.00 0.00 0.00 79 1012.1
20260506165005 11 337 1.6 6.4 0.00 0.00 0.00 77 1012.0
20260506164005 11 337 1.6 6.4 0.00 0.00 0.00 77 1012.1
20260506163005 11 343 1.6 6.4 0.00 0.00 0.00 78 1012.2
20260506162005 11 339 1.6 3.2 0.00 0.00 0.00 79 1012.2
20260506161005 11 337 0.0 3.2 0.00 0.00 0.00 78 1012.2
20260506155004 11 337 1.6 6.4 0.00 0.00 0.00 77 1011.9
20260506154005 11 338 3.2 3.2 0.00 0.00 0.00 78 1012.1
20260506153006 11 338 1.6 3.2 0.00 0.00 0.00 78 1012.1
20260506152005 11 338 1.6 3.2 0.00 0.00 0.00 79 1012.0
20260506151004 11 337 0.0 3.2 0.00 0.00 0.00 80 1012.2
20260506150005 11 342 0.0 3.2 0.00 0.00 0.00 80 1012.1
20260506144004 10 338 3.2 6.4 0.00 0.00 0.00 82 1011.7
20260506143004 10 338 0.0 3.2 0.00 0.00 0.00 84 1011.9
20260506141005 11 337 0.0 6.4 0.00 0.00 0.00 81 1011.8
20260506135005 12 343 1.6 3.2 0.00 0.00 0.00 72 1011.8
20260506134005 12 347 0.0 3.2 0.00 0.00 0.00 72 1011.5
20260506133004 12 337 0.0 3.2 0.00 0.00 0.00 73 1011.7
20260506132005 11 343 1.6 3.2 0.00 0.00 0.00 73 1011.7
20260506131005 11 0 0.0 0.0 0.00 0.00 0.00 75 1011.8
20260506130005 11 338 0.0 3.2 0.00 0.00 0.00 75 1011.8
20260506125004 11 1 0.0 3.2 0.00 0.00 0.00 75 1012.0
20260506124005 11 352 0.0 3.2 0.00 0.00 0.00 73 1011.8
20260506123005 11 338 1.6 3.2 0.00 0.00 0.00 71 1011.7
20260506122005 11 342 1.6 3.2 0.00 0.00 0.00 72 1011.8
20260506115004 11 337 0.0 3.2 0.00 0.00 0.00 71 1011.8
20260506114005 11 351 0.0 3.2 0.00 0.00 0.00 72 1011.5
20260506113005 12 352 0.0 6.4 0.00 0.00 0.00 70 1011.8
20260506112005 12 355 1.6 6.4 0.00 0.00 0.00 67 1011.5
20260506110004 12 348 3.2 6.4 0.00 0.00 0.00 64 1011.5
20260506105004 13 6 0.0 3.2 0.00 0.00 0.00 66 1011.4
20260506104004 13 353 0.0 3.2 0.00 0.00 0.00 65 1011.5
20260506102004 12 347 0.0 3.2 0.00 0.00 0.00 68 1011.5
20260506101005 12 343 0.0 9.7 0.00 0.00 0.00 69 1011.7
20260506095004 11 351 1.6 6.4 0.00 0.00 0.00 71 1011.7
20260506094004 11 344 1.6 6.4 0.00 0.00 0.00 70 1011.4
20260506093004 12 354 0.0 6.4 0.00 0.00 0.00 70 1011.6
20260506092004 11 344 1.6 6.4 0.00 0.00 0.00 72 1011.6
20260506091004 11 353 0.0 3.2 0.00 0.00 0.00 72 1011.5
20260506090004 11 356 0.0 3.2 0.00 0.00 0.00 72 1011.5
20260506084004 10 356 0.0 6.4 0.00 0.00 0.00 76 1011.4